Jackson, MI

1:12 AM EDT on April 25, 2018 (GMT -0400)
Jackson County-Reynolds

Weather History for KJXN - January, 2014

Change the Weather History Date:

Wednesday, January 15, 2014

  Actual Average Record
Temperature  
Mean Temperature 22 °F 23 °F  
Max Temperature 26 °F 31 °F 57 °F (1953)
Min Temperature 17 °F 16 °F -16 °F (1972)
Degree Days  
Heating Degree Days 43 42  
Month to date heating degree days 709 619  
Since 1 July heating degree days 3389 3167  
Cooling Degree Days 0 0  
Month to date cooling degree days 0 0  
Year to date cooling degree days 0 0  
Moisture  
Dew Point 16 °F    
Average Humidity 72    
Maximum Humidity 81    
Minimum Humidity 63    
Precipitation  
Precipitation T in 0.05 in 0.49 in (2007)
Month to date precipitation 1.74 0.82  
Year to date precipitation 1.74 0.82  
Sea Level Pressure  
Sea Level Pressure 29.90 in    
Wind  
Wind Speed 11 mph (WSW)    
Max Wind Speed 26 mph    
Max Gust Speed 36 mph    
Visibility 8 miles    
Events Snow    
T = Trace of Precipitation, MM = Missing Value Source: NWS Daily Summary

Daily Weather History Graph

Daily Weather History Graph

Search for Another Location

Airport or City:

Astronomy

Jan. 15, 2014 Rise Set
Actual Time 8:04 AM EST 5:30 PM EST
Civil Twilight 7:33 AM EST 6:01 PM EST
Nautical Twilight 6:58 AM EST 6:36 PM EST
Astronomical Twilight 6:24 AM EST 7:10 PM EST
Moon 5:29 PM EST (1/15) 7:18 AM EST (1/15)
Length of Visible Light 10h 28m
Length of Day
9h 26m
Full, 100% of the Moon is Illuminated
Jan 15
Full
Jan 15
Full
Jan 24
Last Quarter
Jan 30
New
Feb 6
First Quarter

Hourly Weather History & Observations

Time (EST) Temp. Windchill Dew Point Humidity Pressure Visibility Wind Dir Wind Speed Gust Speed Precip Events Conditions
12:56 AM 25.0 °F 11.3 °F 17.1 °F 72% 29.75 in 5.0 mi SW 18.4 mph 27.6 mph 0.00 in Snow Light Snow
1:31 AM 25.0 °F 10.9 °F 17.1 °F 72% 29.70 in 8.0 mi SSW 19.6 mph 28.8 mph 0.00 in Snow Light Snow
1:56 AM 25.0 °F 13.1 °F 18.0 °F 75% 29.74 in 8.0 mi SW 13.8 mph 25.3 mph 0.00 in Snow Light Snow
2:56 AM 25.0 °F 11.7 °F 17.1 °F 72% 29.74 in 10.0 mi WSW 17.3 mph 29.9 mph 0.00 in   Overcast
3:56 AM 24.1 °F 9.0 °F 16.0 °F 71% 29.75 in 10.0 mi WSW 21.9 mph 33.4 mph N/A   Overcast
4:16 AM 24.1 °F 9.4 °F 16.0 °F 71% 29.72 in 9.0 mi WSW 20.7 mph 29.9 mph 0.00 in Snow Light Snow
4:56 AM 24.1 °F 10.6 °F 17.1 °F 75% 29.77 in 10.0 mi WSW 17.3 mph 31.1 mph 0.00 in   Overcast
5:56 AM 24.1 °F 11.5 °F 17.1 °F 75% 29.79 in 10.0 mi WSW 15.0 mph 21.9 mph N/A   Overcast
6:56 AM 24.1 °F 13.1 °F 18.0 °F 77% 29.83 in 10.0 mi WSW 11.5 mph - N/A   Overcast
7:56 AM 24.1 °F 15.2 °F 19.0 °F 81% 29.87 in 7.0 mi WSW 8.1 mph - 0.00 in Snow Light Snow
8:14 AM 24.1 °F 16.0 °F 19.9 °F 84% 29.84 in 8.0 mi West 6.9 mph - 0.00 in Snow Light Snow
8:29 AM 24.1 °F 15.2 °F 19.0 °F 81% 29.84 in 10.0 mi West 8.1 mph - 0.00 in   Overcast
8:38 AM 24.1 °F 12.5 °F 18.0 °F 77% 29.85 in 10.0 mi West 12.7 mph - 0.00 in   Overcast
8:56 AM 25.0 °F 17.1 °F 18.0 °F 75% 29.91 in 7.0 mi West 6.9 mph - 0.00 in Snow Light Snow
9:46 AM 25.0 °F 14.8 °F 18.0 °F 75% 29.90 in 9.0 mi West 10.4 mph - 0.00 in Snow Light Snow
9:56 AM 25.0 °F 14.2 °F 19.0 °F 78% 29.94 in 4.0 mi West 11.5 mph - 0.00 in Snow Light Snow
10:06 AM 24.1 °F 14.4 °F 19.0 °F 81% 29.91 in 2.5 mi West 9.2 mph - 0.00 in Snow Light Snow
10:18 AM 24.1 °F 14.4 °F 19.9 °F 84% 29.91 in 1.8 mi West 9.2 mph - 0.00 in Snow Light Snow
10:56 AM 24.1 °F 16.0 °F 19.9 °F 84% 29.96 in 1.0 mi Variable 6.9 mph - 0.00 in Snow Light Snow
11:26 AM 24.1 °F 13.1 °F 19.0 °F 81% 29.93 in 2.0 mi West 11.5 mph 18.4 mph 0.00 in Snow Light Snow
11:41 AM 25.0 °F 13.6 °F 19.0 °F 78% 29.92 in 4.0 mi West 12.7 mph - 0.00 in Snow Light Snow
11:56 AM 25.0 °F 14.8 °F 18.0 °F 75% 29.96 in 5.0 mi WNW 10.4 mph 17.3 mph 0.00 in Snow Light Snow
12:56 PM 26.1 °F 16.2 °F 18.0 °F 71% 29.96 in 10.0 mi West 10.4 mph 19.6 mph 0.00 in   Overcast
1:04 PM 26.1 °F 15.6 °F 18.0 °F 71% 29.91 in 10.0 mi West 11.5 mph 16.1 mph N/A   Overcast
1:22 PM 26.1 °F 16.8 °F 16.0 °F 66% 29.91 in 10.0 mi West 9.2 mph 18.4 mph N/A   Overcast
1:56 PM 26.1 °F 16.8 °F 16.0 °F 66% 29.95 in 10.0 mi West 9.2 mph 18.4 mph N/A   Overcast
2:03 PM 26.1 °F 16.2 °F 16.0 °F 66% 29.91 in 10.0 mi West 10.4 mph - N/A   Overcast
2:17 PM 25.0 °F 13.1 °F 16.0 °F 69% 29.92 in 10.0 mi WSW 13.8 mph - N/A   Overcast
2:56 PM 25.0 °F 13.6 °F 15.1 °F 66% 29.96 in 10.0 mi West 12.7 mph - N/A   Overcast
3:07 PM 25.0 °F 15.5 °F 16.0 °F 69% 29.92 in 10.0 mi WSW 9.2 mph - N/A   Overcast
3:31 PM 24.1 °F 12.5 °F 15.1 °F 69% 29.93 in 10.0 mi West 12.7 mph - N/A   Overcast
3:52 PM 24.8 °F 14.0 °F 15.8 °F 69% 29.94 in 4.0 mi West 11.5 mph 18.4 mph 0.00 in Snow Light Snow
3:56 PM 24.1 °F 13.1 °F 16.0 °F 71% 29.98 in 4.0 mi WSW 11.5 mph 18.4 mph 0.00 in Snow Light Snow
4:07 PM 24.1 °F 13.7 °F 15.1 °F 69% 29.94 in 9.0 mi West 10.4 mph - 0.00 in   Overcast
4:56 PM 23.0 °F 13.1 °F 14.0 °F 68% 30.01 in 10.0 mi WNW 9.2 mph - 0.00 in   Overcast
5:56 PM 21.9 °F 10.4 °F 12.9 °F 68% 30.01 in 10.0 mi WNW 11.5 mph - N/A   Overcast
6:56 PM 21.0 °F 16.2 °F 14.0 °F 74% 30.01 in 10.0 mi SW 3.5 mph - N/A   Mostly Cloudy
7:34 PM 21.0 °F 8.6 °F 15.1 °F 78% 29.97 in 5.0 mi WSW 12.7 mph - 0.00 in Snow Light Snow
7:56 PM 19.9 °F 7.9 °F 14.0 °F 78% 30.02 in 10.0 mi WSW 11.5 mph - 0.00 in   Overcast
8:27 PM 18.0 °F 9.8 °F 12.9 °F 81% 29.98 in 10.0 mi WSW 5.8 mph - N/A   Partly Cloudy
8:56 PM 17.1 °F 10.0 °F 12.0 °F 81% 30.02 in 10.0 mi WSW 4.6 mph - N/A   Scattered Clouds
9:07 PM 18.0 °F 11.1 °F 12.9 °F 81% 29.97 in 10.0 mi SW 4.6 mph - N/A   Mostly Cloudy
9:56 PM 19.0 °F 10.0 °F 12.9 °F 77% 30.01 in 10.0 mi West 6.9 mph - N/A   Overcast
10:56 PM 19.0 °F 8.2 °F 12.9 °F 77% 29.99 in 7.0 mi SW 9.2 mph - 0.00 in Snow Light Snow
11:56 PM 19.0 °F 7.5 °F 10.9 °F 71% 29.95 in 10.0 mi South 10.4 mph - 0.00 in   Overcast